Weather History for Georgetown, DE

Change the Weather History Date:

Thursday, May 9, 2013

  Actual Average Record
Temperature  
Mean Temperature 67 °F 61 °F  
Max Temperature 75 °F 71 °F 92 °F (1964)
Min Temperature 58 °F 50 °F 30 °F (1956)
Degree Days  
Heating Degree Days 0 6  
Month to date heating degree days 75 60  
Since 1 July heating degree days 4090 4320  
Cooling Degree Days 2 2  
Month to date cooling degree days 2 11  
Year to date cooling degree days 33 31  
Growing Degree Days 15 (Base 50)    
Moisture  
Dew Point 56 °F    
Average Humidity 70    
Maximum Humidity 93    
Minimum Humidity 46    
Precipitation  
Precipitation 0.07 in 0.12 in 0.92 in (2008)
Month to date precipitation 0.50 0.88  
Year to date precipitation 13.14 14.27  
Sea Level Pressure  
Sea Level Pressure 29.95 in    
Wind  
Wind Speed 5 mph (SW)    
Max Wind Speed 14 mph    
Max Gust Speed 20 mph    
Visibility 8 miles    
Events Rain    
T = Trace of Precipitation, MM = Missing Value Source: NWS Daily Summary

Daily Weather History Graph

Daily Weather History Graph

Search for Another Location

Airport:

Trip Planner

Search our weather history database for the weather conditions in past years. The results will help you decide how hot, cold, wet, or windy it might be!

Date:

Astronomy

May. 09, 2013 Rise Set
Actual Time 5:54 AM EDT 8:01 PM EDT
Civil Twilight 5:25 AM EDT 8:30 PM EDT
Nautical Twilight 4:49 AM EDT 9:06 PM EDT
Astronomical Twilight 4:10 AM EDT 9:46 PM EDT
Moon 5:37 AM EDT (5/9) 7:54 PM EDT (5/9)
Length of Visible Light 15h 05m
Length of Day
14h 06m
Waning Crescent, 0% of the Moon is Illuminated
May 9
Waning Crescent
May 9
New
May 18
First Quarter
May 25
Full
May 31
Last Quarter

Hourly Weather History & Observations

Time (EDT) Temp. Dew Point Humidity Pressure Visibility Wind Dir Wind Speed Gust Speed Precip Events Conditions
12:54 AM 59.0 °F 57.0 °F 93% 29.95 in 6.0 mi East 5.8 mph - 0.01 in   Overcast
1:11 AM 59.0 °F 57.2 °F 94% 29.94 in 5.0 mi East 3.5 mph - 0.02 in Rain Rain
1:30 AM 59.0 °F 57.2 °F 94% 29.95 in 8.0 mi SSE 4.6 mph - 0.03 in Rain Light Rain
1:54 AM 59.0 °F 57.0 °F 93% 29.94 in 6.0 mi SE 5.8 mph - 0.07 in Rain Light Rain
2:07 AM 59.0 °F 57.2 °F 94% 29.93 in 8.0 mi South 5.8 mph - 0.00 in   Overcast
2:36 AM 57.2 °F 57.2 °F 100% 29.93 in 7.0 mi SSE 3.5 mph - 0.00 in   Mostly Cloudy
2:54 AM 57.9 °F 55.9 °F 93% 29.92 in 8.0 mi SSE 4.6 mph - 0.00 in   Overcast
3:04 AM 57.2 °F 55.4 °F 94% 29.93 in 8.0 mi Calm Calm - N/A   Overcast
3:42 AM 57.2 °F 55.4 °F 94% 29.92 in 7.0 mi SSE 3.5 mph - N/A   Overcast
3:54 AM 57.9 °F 55.9 °F 93% 29.92 in 6.0 mi Calm Calm - N/A   Overcast
4:16 AM 57.2 °F 57.2 °F 100% 29.92 in 7.0 mi Calm Calm - N/A   Overcast
4:54 AM 59.0 °F 57.0 °F 93% 29.92 in 7.0 mi Calm Calm - N/A   Overcast
5:07 AM 59.0 °F 57.2 °F 94% 29.92 in 7.0 mi Calm Calm - N/A   Overcast
5:26 AM 59.0 °F 57.2 °F 94% 29.92 in 7.0 mi Calm Calm - N/A   Overcast
5:46 AM 59.0 °F 57.2 °F 94% 29.92 in 6.0 mi Calm Calm - N/A   Overcast
5:54 AM 59.0 °F 57.0 °F 93% 29.92 in 5.0 mi Calm Calm - N/A   Overcast
6:54 AM 59.0 °F 55.9 °F 90% 29.95 in 7.0 mi West 4.6 mph - N/A   Clear
7:29 AM 59.0 °F 55.4 °F 88% 29.96 in 9.0 mi WSW 4.6 mph - N/A   Scattered Clouds
7:39 AM 59.0 °F 55.4 °F 88% 29.96 in 10.0 mi West 3.5 mph - N/A   Mostly Cloudy
7:54 AM 59.0 °F 55.9 °F 90% 29.96 in 9.0 mi West 4.6 mph - N/A   Overcast
8:54 AM 60.1 °F 55.9 °F 86% 29.98 in 10.0 mi WSW 6.9 mph - N/A   Overcast
9:54 AM 62.1 °F 54.0 °F 75% 29.98 in 10.0 mi Variable 4.6 mph - N/A   Overcast
10:47 AM 62.6 °F 53.6 °F 72% 29.99 in 10.0 mi WNW 5.8 mph - N/A   Scattered Clouds
10:54 AM 63.0 °F 54.0 °F 72% 29.99 in 10.0 mi WNW 6.9 mph - N/A   Scattered Clouds
11:03 AM 62.6 °F 55.4 °F 77% 29.99 in 10.0 mi Variable 3.5 mph - N/A   Mostly Cloudy
11:52 AM 64.4 °F 53.6 °F 68% 29.99 in 10.0 mi WSW 8.1 mph - N/A   Scattered Clouds
11:54 AM 64.9 °F 54.0 °F 68% 29.99 in 10.0 mi WSW 6.9 mph - N/A   Partly Cloudy
1:54 PM 71.1 °F 53.1 °F 53% 29.96 in 10.0 mi WNW 8.1 mph - N/A   Scattered Clouds
2:54 PM 73.0 °F 53.1 °F 49% 29.95 in 10.0 mi WSW 8.1 mph - N/A   Scattered Clouds
3:54 PM 73.9 °F 52.0 °F 46% 29.95 in 10.0 mi SW 13.8 mph - N/A   Clear
4:54 PM 73.9 °F 53.1 °F 48% 29.95 in 10.0 mi West 8.1 mph - N/A   Partly Cloudy
5:54 PM 73.9 °F 54.0 °F 50% 29.95 in 10.0 mi WSW 6.9 mph - N/A   Mostly Cloudy
6:54 PM 73.0 °F 54.0 °F 51% 29.95 in 10.0 mi WSW 3.5 mph - N/A   Partly Cloudy
7:54 PM 69.1 °F 57.0 °F 65% 29.97 in 10.0 mi SW 5.8 mph - N/A   Clear
8:54 PM 66.0 °F 57.0 °F 73% 29.98 in 10.0 mi SW 3.5 mph - N/A   Clear
9:54 PM 64.9 °F 57.0 °F 75% 30.00 in 10.0 mi SW 5.8 mph - N/A   Clear
10:54 PM 63.0 °F 57.0 °F 81% 30.00 in 10.0 mi SSW 3.5 mph - N/A   Clear
11:54 PM 63.0 °F 57.0 °F 81% 29.99 in 10.0 mi SW 5.8 mph - N/A   Clear